Time,TemperatureF,DewpointF,PressureIn,WindDirection,WindDirectionDegrees,WindSpeedMPH,WindSpeedGustMPH,Humidity,HourlyPrecipIn,Conditions,Clouds,dailyrainin,SoftwareType,DateUTC
2013-02-20 00:00:00,31.7,20.5,29.69,WSW,248,8.5,10.7,63,0.00,,,0.00,WUHU216HW,2013-02-20 07:00:00,
2013-02-20 00:05:00,31.5,20.0,29.69,WSW,248,7.2,9.8,62,0.00,,,0.00,WUHU216HW,2013-02-20 07:05:00,
2013-02-20 00:10:00,31.3,19.8,29.69,WSW,248,8.9,9.8,62,0.00,,,0.00,WUHU216HW,2013-02-20 07:10:00,
2013-02-20 00:15:00,31.3,19.8,29.69,SW,225,11.4,11.4,62,0.00,,,0.00,WUHU216HW,2013-02-20 07:15:00,
2013-02-20 00:20:00,31.1,19.6,29.69,SW,225,4.9,11.4,62,0.00,,,0.00,WUHU216HW,2013-02-20 07:20:00,
2013-02-20 00:25:00,31.0,19.4,29.69,South,180,3.1,9.4,62,0.00,,,0.00,WUHU216HW,2013-02-20 07:25:00,
2013-02-20 00:30:00,31.0,19.4,29.69,SSE,158,6.7,8.5,62,0.00,,,0.00,WUHU216HW,2013-02-20 07:30:00,
2013-02-20 00:35:00,30.8,19.3,29.69,SSW,203,7.4,10.3,62,0.00,,,0.00,WUHU216HW,2013-02-20 07:35:00,
2013-02-20 00:40:00,30.6,19.1,29.69,WSW,248,6.5,10.3,62,0.00,,,0.00,WUHU216HW,2013-02-20 07:40:00,
2013-02-20 00:45:00,30.6,19.1,29.69,WSW,248,3.4,9.2,62,0.00,,,0.00,WUHU216HW,2013-02-20 07:45:00,
2013-02-20 00:50:00,30.6,19.1,29.69,North,0,5.1,12.5,62,0.00,,,0.00,WUHU216HW,2013-02-20 07:50:00,
2013-02-20 00:55:00,30.4,18.9,29.69,WSW,248,10.3,12.5,62,0.00,,,0.00,WUHU216HW,2013-02-20 07:55:00,
2013-02-20 01:00:00,30.4,18.9,29.68,SW,225,12.8,12.8,62,0.00,,,0.00,WUHU216HW,2013-02-20 08:00:00,
2013-02-20 01:05:00,30.4,18.9,29.68,South,180,4.7,12.8,62,0.00,,,0.00,WUHU216HW,2013-02-20 08:05:00,
2013-02-20 01:10:00,30.2,18.7,29.68,SW,225,5.4,12.8,62,0.00,,,0.00,WUHU216HW,2013-02-20 08:10:00,
2013-02-20 01:15:00,30.2,18.7,29.68,WSW,248,7.6,12.1,62,0.00,,,0.00,WUHU216HW,2013-02-20 08:15:00,
2013-02-20 01:20:00,30.1,18.2,29.68,WSW,248,6.0,11.4,61,0.00,,,0.00,WUHU216HW,2013-02-20 08:20:00,
2013-02-20 01:25:00,29.9,18.0,29.68,South,180,8.7,11.4,61,0.00,,,0.00,WUHU216HW,2013-02-20 08:25:00,
2013-02-20 01:30:00,29.9,18.0,29.68,SSW,203,4.3,11.4,61,0.00,,,0.00,WUHU216HW,2013-02-20 08:30:00,
2013-02-20 01:35:00,29.9,18.0,29.69,WSW,248,5.4,12.3,61,0.00,,,0.00,WUHU216HW,2013-02-20 08:35:00,
2013-02-20 01:40:00,29.9,17.6,29.69,West,270,6.9,12.3,60,0.00,,,0.00,WUHU216HW,2013-02-20 08:40:00,
2013-02-20 01:45:00,29.7,17.6,29.69,SSE,158,1.3,10.5,60,0.00,,,0.00,WUHU216HW,2013-02-20 08:45:00,
2013-02-20 01:50:00,29.5,17.4,29.69,West,270,4.5,6.9,60,0.00,,,0.00,WUHU216HW,2013-02-20 08:50:00,
2013-02-20 01:55:00,29.3,17.2,29.68,West,270,1.8,6.7,60,0.00,,,0.00,WUHU216HW,2013-02-20 08:55:00,
2013-02-20 02:00:00,29.3,17.6,29.68,South,180,3.6,7.6,61,0.00,,,0.00,WUHU216HW,2013-02-20 09:00:00,
2013-02-20 02:05:00,29.5,18.1,29.68,South,180,4.7,8.5,62,0.00,,,0.00,WUHU216HW,2013-02-20 09:05:00,
2013-02-20 02:10:00,29.7,18.6,29.68,SW,225,1.6,8.5,63,0.00,,,0.00,WUHU216HW,2013-02-20 09:10:00,
2013-02-20 02:15:00,29.9,19.1,29.68,SSE,158,8.5,8.5,64,0.00,,,0.00,WUHU216HW,2013-02-20 09:15:00,
2013-02-20 02:20:00,30.1,19.6,29.67,South,180,3.8,13.4,65,0.00,,,0.00,WUHU216HW,2013-02-20 09:20:00,
2013-02-20 02:25:00,30.2,19.8,29.67,SW,225,6.7,13.4,65,0.00,,,0.00,WUHU216HW,2013-02-20 09:25:00,
2013-02-20 02:30:00,30.2,20.2,29.67,WSW,248,3.4,12.1,66,0.00,,,0.00,WUHU216HW,2013-02-20 09:30:00,
2013-02-20 02:35:00,30.2,20.2,29.67,SSW,203,8.1,12.5,66,0.00,,,0.00,WUHU216HW,2013-02-20 09:35:00,
2013-02-20 02:40:00,30.2,20.2,29.67,WSW,248,5.6,12.5,66,0.00,,,0.00,WUHU216HW,2013-02-20 09:40:00,
2013-02-20 02:45:00,30.2,20.2,29.67,WSW,248,2.9,11.6,66,0.00,,,0.00,WUHU216HW,2013-02-20 09:45:00,
2013-02-20 02:50:00,30.2,20.9,29.67,SW,225,6.0,15.7,68,0.00,,,0.00,WUHU216HW,2013-02-20 09:50:00,
2013-02-20 02:55:00,30.2,20.5,29.66,West,270,4.0,15.7,67,0.00,,,0.00,WUHU216HW,2013-02-20 09:55:00,
2013-02-20 03:00:00,30.2,20.5,29.66,SW,225,6.3,9.4,67,0.00,,,0.00,WUHU216HW,2013-02-20 10:00:00,
2013-02-20 03:05:00,30.2,20.9,29.66,South,180,4.5,10.3,68,0.00,,,0.00,WUHU216HW,2013-02-20 10:05:00,
2013-02-20 03:10:00,30.2,21.2,29.66,SSW,203,7.6,10.3,69,0.00,,,0.00,WUHU216HW,2013-02-20 10:10:00,
2013-02-20 03:15:00,30.2,21.6,29.66,WSW,248,4.0,11.4,70,0.00,,,0.00,WUHU216HW,2013-02-20 10:15:00,
2013-02-20 03:20:00,30.2,21.6,29.65,WSW,248,5.4,11.4,70,0.00,,,0.00,WUHU216HW,2013-02-20 10:20:00,
2013-02-20 03:25:00,30.1,21.4,29.65,SSW,203,2.2,9.2,70,0.00,,,0.00,WUHU216HW,2013-02-20 10:25:00,
2013-02-20 03:30:00,29.9,22.0,29.65,WSW,248,2.5,9.2,72,0.00,,,0.00,WUHU216HW,2013-02-20 10:30:00,
2013-02-20 03:35:00,29.9,22.2,29.65,SW,225,2.5,8.1,73,0.00,,,0.00,WUHU216HW,2013-02-20 10:35:00,
2013-02-20 03:40:00,29.9,22.0,29.65,WNW,293,2.0,6.7,72,0.00,,,0.00,WUHU216HW,2013-02-20 10:40:00,
2013-02-20 03:45:00,29.9,22.0,29.65,West,270,2.7,8.3,72,0.00,,,0.00,WUHU216HW,2013-02-20 10:45:00,
2013-02-20 03:50:00,29.7,22.1,29.65,SSW,203,4.0,8.3,73,0.00,,,0.00,WUHU216HW,2013-02-20 10:50:00,
2013-02-20 03:55:00,29.7,22.1,29.65,West,270,1.8,6.7,73,0.00,,,0.00,WUHU216HW,2013-02-20 10:55:00,
2013-02-20 04:00:00,29.5,22.2,29.65,WSW,248,3.6,4.0,74,0.00,,,0.00,WUHU216HW,2013-02-20 11:00:00,
2013-02-20 04:05:00,29.5,22.5,29.65,SW,225,2.2,5.6,75,0.00,,,0.00,WUHU216HW,2013-02-20 11:05:00,
2013-02-20 04:10:00,29.3,22.4,29.65,SSW,203,2.2,5.6,75,0.00,,,0.00,WUHU216HW,2013-02-20 11:10:00,
2013-02-20 04:15:00,29.3,22.4,29.64,South,180,4.3,4.3,75,0.00,,,0.00,WUHU216HW,2013-02-20 11:15:00,
2013-02-20 04:20:00,29.3,22.7,29.64,SW,225,4.3,4.5,76,0.00,,,0.00,WUHU216HW,2013-02-20 11:20:00,
2013-02-20 04:25:00,29.3,22.7,29.64,SW,225,3.4,8.5,76,0.00,,,0.00,WUHU216HW,2013-02-20 11:25:00,
2013-02-20 04:30:00,29.3,22.7,29.64,SW,225,3.8,8.5,76,0.00,,,0.00,WUHU216HW,2013-02-20 11:30:00,
2013-02-20 04:35:00,29.3,22.4,29.64,SSW,203,2.5,6.0,75,0.00,,,0.00,WUHU216HW,2013-02-20 11:35:00,
2013-02-20 04:40:00,29.3,23.0,29.64,North,0,0.4,4.7,77,0.00,,,0.00,WUHU216HW,2013-02-20 11:40:00,
2013-02-20 04:45:00,29.2,23.1,29.63,North,0,1.1,4.5,78,0.00,,,0.00,WUHU216HW,2013-02-20 11:45:00,
2013-02-20 04:50:00,29.2,22.9,29.64,NW,315,0.7,1.6,77,0.00,,,0.00,WUHU216HW,2013-02-20 11:50:00,
2013-02-20 04:55:00,29.2,23.1,29.64,West,270,1.3,3.4,78,0.00,,,0.00,WUHU216HW,2013-02-20 11:55:00,
2013-02-20 05:00:00,29.2,23.1,29.64,West,270,4.0,5.4,78,0.00,,,0.00,WUHU216HW,2013-02-20 12:00:00,
2013-02-20 05:05:00,29.2,22.9,29.64,West,270,1.6,5.4,77,0.00,,,0.00,WUHU216HW,2013-02-20 12:05:00,
2013-02-20 05:10:00,29.2,23.1,29.64,SSW,203,0.9,8.7,78,0.00,,,0.00,WUHU216HW,2013-02-20 12:10:00,
2013-02-20 05:15:00,29.2,23.5,29.65,WSW,248,4.0,13.6,79,0.00,,,0.00,WUHU216HW,2013-02-20 12:15:00,
2013-02-20 05:20:00,28.4,23.3,29.65,WSW,248,11.0,13.6,81,0.00,,,0.00,WUHU216HW,2013-02-20 12:20:00,
2013-02-20 05:25:00,27.9,22.8,29.65,WSW,248,10.3,13.9,81,0.00,,,0.00,WUHU216HW,2013-02-20 12:25:00,
2013-02-20 05:30:00,27.4,22.5,29.65,West,270,7.6,13.9,82,0.00,,,0.00,WUHU216HW,2013-02-20 12:30:00,
2013-02-20 05:35:00,27.2,22.3,29.64,WSW,248,4.3,10.3,82,0.00,,,0.00,WUHU216HW,2013-02-20 12:35:00,
2013-02-20 05:40:00,27.0,22.1,29.64,WSW,248,4.7,9.4,82,0.00,,,0.00,WUHU216HW,2013-02-20 12:40:00,
2013-02-20 05:45:00,27.0,21.9,29.65,WNW,293,3.4,8.5,81,0.00,,,0.00,WUHU216HW,2013-02-20 12:45:00,
2013-02-20 05:50:00,27.2,22.1,29.64,WSW,248,3.8,6.9,81,0.00,,,0.00,WUHU216HW,2013-02-20 12:50:00,
2013-02-20 05:55:00,27.2,22.1,29.64,West,270,1.6,4.7,81,0.00,,,0.00,WUHU216HW,2013-02-20 12:55:00,
2013-02-20 06:00:00,27.2,22.1,29.65,SW,225,0.2,5.4,81,0.00,,,0.00,WUHU216HW,2013-02-20 13:00:00,
2013-02-20 06:05:00,27.4,22.5,29.64,SW,225,4.5,9.2,82,0.00,,,0.00,WUHU216HW,2013-02-20 13:05:00,
2013-02-20 06:10:00,27.4,22.2,29.64,SW,225,3.4,9.2,81,0.00,,,0.00,WUHU216HW,2013-02-20 13:10:00,
2013-02-20 06:15:00,27.4,22.2,29.64,South,180,2.9,7.4,81,0.00,,,0.00,WUHU216HW,2013-02-20 13:15:00,
2013-02-20 06:20:00,27.4,22.5,29.64,West,270,9.4,9.4,82,0.00,,,0.00,WUHU216HW,2013-02-20 13:20:00,
2013-02-20 06:25:00,27.4,22.5,29.64,WSW,248,8.5,12.8,82,0.00,,,0.00,WUHU216HW,2013-02-20 13:25:00,
2013-02-20 06:30:00,27.2,22.1,29.64,SW,225,5.4,12.8,81,0.00,,,0.00,WUHU216HW,2013-02-20 13:30:00,
2013-02-20 06:35:00,27.2,22.3,29.64,SSW,203,4.9,8.5,82,0.00,,,0.00,WUHU216HW,2013-02-20 13:35:00,
2013-02-20 06:40:00,27.2,22.3,29.64,WSW,248,2.2,7.6,82,0.00,,,0.00,WUHU216HW,2013-02-20 13:40:00,
2013-02-20 06:45:00,27.2,22.3,29.64,West,270,6.9,8.1,82,0.00,,,0.00,WUHU216HW,2013-02-20 13:45:00,
2013-02-20 06:50:00,27.2,22.3,29.64,SW,225,3.6,11.9,82,0.00,,,0.00,WUHU216HW,2013-02-20 13:50:00,
2013-02-20 06:55:00,27.4,22.5,29.64,SSW,203,5.1,11.9,82,0.00,,,0.00,WUHU216HW,2013-02-20 13:55:00,
2013-02-20 07:00:00,27.4,22.2,29.64,SW,225,7.6,7.6,81,0.00,,,0.00,WUHU216HW,2013-02-20 14:00:00,
2013-02-20 07:05:00,27.4,22.5,29.64,West,270,8.9,8.9,82,0.00,,,0.00,WUHU216HW,2013-02-20 14:05:00,
2013-02-20 07:10:00,27.4,22.2,29.64,WSW,248,4.5,8.9,81,0.00,,,0.00,WUHU216HW,2013-02-20 14:10:00,
2013-02-20 07:15:00,27.4,22.5,29.65,SSW,203,6.7,8.9,82,0.00,,,0.00,WUHU216HW,2013-02-20 14:15:00,
2013-02-20 07:20:00,27.4,22.5,29.65,WSW,248,3.8,8.3,82,0.00,,,0.00,WUHU216HW,2013-02-20 14:20:00,
2013-02-20 07:25:00,27.4,22.5,29.65,West,270,3.4,7.6,82,0.00,,,0.00,WUHU216HW,2013-02-20 14:25:00,
2013-02-20 07:30:00,27.5,23.1,29.65,WSW,248,10.1,10.1,83,0.00,,,0.00,WUHU216HW,2013-02-20 14:30:00,
2013-02-20 07:35:00,27.4,22.9,29.65,SW,225,6.0,11.0,83,0.00,,,0.00,WUHU216HW,2013-02-20 14:35:00,
2013-02-20 07:40:00,27.2,23.0,29.65,WNW,293,7.4,11.0,84,0.00,,,0.00,WUHU216HW,2013-02-20 14:40:00,
2013-02-20 07:45:00,27.2,22.7,29.65,West,270,7.8,9.4,83,0.00,,,0.00,WUHU216HW,2013-02-20 14:45:00,
2013-02-20 07:50:00,27.2,22.7,29.65,SW,225,1.8,7.8,83,0.00,,,0.00,WUHU216HW,2013-02-20 14:50:00,
2013-02-20 07:55:00,27.4,22.9,29.65,SW,225,1.8,7.8,83,0.00,,,0.00,WUHU216HW,2013-02-20 14:55:00,
2013-02-20 08:00:00,27.5,22.7,29.65,WSW,248,2.5,5.4,82,0.00,,,0.00,WUHU216HW,2013-02-20 15:00:00,
2013-02-20 08:05:00,27.7,22.9,29.65,NW,315,1.3,5.8,82,0.00,,,0.00,WUHU216HW,2013-02-20 15:05:00,
2013-02-20 08:10:00,27.7,22.9,29.65,WSW,248,7.6,8.9,82,0.00,,,0.00,WUHU216HW,2013-02-20 15:10:00,
2013-02-20 08:15:00,27.7,22.9,29.65,WNW,293,4.3,8.9,82,0.00,,,0.00,WUHU216HW,2013-02-20 15:15:00,
2013-02-20 08:20:00,28.1,23.2,29.65,West,270,5.1,9.2,82,0.00,,,0.00,WUHU216HW,2013-02-20 15:20:00,
2013-02-20 08:25:00,28.1,23.0,29.65,WSW,248,5.1,14.5,81,0.00,,,0.00,WUHU216HW,2013-02-20 15:25:00,
2013-02-20 08:30:00,28.1,22.7,29.65,SSW,203,5.4,14.5,80,0.00,,,0.00,WUHU216HW,2013-02-20 15:30:00,
2013-02-20 08:35:00,28.8,23.4,29.65,SW,225,6.3,9.6,80,0.00,,,0.00,WUHU216HW,2013-02-20 15:35:00,
2013-02-20 08:40:00,29.0,23.6,29.66,WSW,248,11.0,11.9,80,0.00,,,0.00,WUHU216HW,2013-02-20 15:40:00,
2013-02-20 08:45:00,29.0,23.3,29.66,WSW,248,10.7,11.9,79,0.00,,,0.00,WUHU216HW,2013-02-20 15:45:00,
2013-02-20 08:50:00,29.2,22.9,29.66,West,270,4.9,11.2,77,0.00,,,0.00,WUHU216HW,2013-02-20 15:50:00,
2013-02-20 08:55:00,29.9,23.5,29.66,WSW,248,9.6,10.3,77,0.00,,,0.00,WUHU216HW,2013-02-20 15:55:00,
2013-02-20 09:00:00,30.4,23.8,29.66,WSW,248,8.3,10.5,76,0.00,,,0.00,WUHU216HW,2013-02-20 16:00:00,
2013-02-20 09:05:00,30.6,24.0,29.66,WSW,248,11.0,12.8,76,0.00,,,0.00,WUHU216HW,2013-02-20 16:05:00,
2013-02-20 09:10:00,31.0,23.9,29.66,SW,225,4.7,12.8,75,0.00,,,0.00,WUHU216HW,2013-02-20 16:10:00,
2013-02-20 09:15:00,31.5,24.5,29.66,West,270,7.4,11.0,75,0.00,,,0.00,WUHU216HW,2013-02-20 16:15:00,
2013-02-20 09:20:00,31.7,24.0,29.66,West,270,4.0,12.1,73,0.00,,,0.00,WUHU216HW,2013-02-20 16:20:00,
2013-02-20 09:25:00,31.5,23.2,29.66,WSW,248,6.3,12.1,71,0.01,,,0.01,WUHU216HW,2013-02-20 16:25:00,
2013-02-20 09:30:00,31.1,23.1,29.66,SW,225,7.2,12.8,72,0.01,,,0.01,WUHU216HW,2013-02-20 16:30:00,
2013-02-20 09:35:00,30.4,22.2,29.66,WNW,293,6.7,13.2,71,0.02,,,0.02,WUHU216HW,2013-02-20 16:35:00,
2013-02-20 09:40:00,30.2,22.2,29.66,SSW,203,2.0,13.2,72,0.02,,,0.02,WUHU216HW,2013-02-20 16:40:00,
2013-02-20 09:45:00,29.9,22.0,29.66,West,270,6.9,13.4,72,0.02,,,0.02,WUHU216HW,2013-02-20 16:45:00,
2013-02-20 09:50:00,29.7,22.1,29.66,WSW,248,9.6,13.4,73,0.02,,,0.02,WUHU216HW,2013-02-20 16:50:00,
2013-02-20 09:55:00,29.7,22.1,29.66,SW,225,3.4,12.5,73,0.02,,,0.02,WUHU216HW,2013-02-20 16:55:00,
2013-02-20 10:00:00,30.1,22.4,29.66,SW,225,4.7,10.1,73,0.02,,,0.02,WUHU216HW,2013-02-20 17:00:00,
2013-02-20 10:05:00,30.6,23.0,29.66,WSW,248,6.7,11.4,73,0.03,,,0.03,WUHU216HW,2013-02-20 17:05:00,
2013-02-20 10:10:00,31.3,23.7,29.65,West,270,3.4,11.4,73,0.03,,,0.03,WUHU216HW,2013-02-20 17:10:00,
2013-02-20 10:15:00,32.0,23.8,29.65,SW,225,5.1,8.9,71,0.03,,,0.03,WUHU216HW,2013-02-20 17:15:00,
2013-02-20 10:20:00,32.2,23.6,29.65,WSW,248,9.8,11.2,70,0.02,,,0.03,WUHU216HW,2013-02-20 17:20:00,
2013-02-20 10:25:00,32.0,23.0,29.65,WSW,248,6.0,11.4,69,0.02,,,0.03,WUHU216HW,2013-02-20 17:25:00,
2013-02-20 10:30:00,31.9,22.9,29.65,West,270,6.9,11.4,69,0.03,,,0.04,WUHU216HW,2013-02-20 17:30:00,
2013-02-20 10:35:00,31.9,22.9,29.65,NNW,338,2.5,8.1,69,0.02,,,0.04,WUHU216HW,2013-02-20 17:35:00,
2013-02-20 10:40:00,32.0,23.0,29.65,WSW,248,1.8,8.1,69,0.02,,,0.04,WUHU216HW,2013-02-20 17:40:00,
2013-02-20 10:45:00,32.0,23.0,29.66,West,270,3.8,7.6,69,0.03,,,0.05,WUHU216HW,2013-02-20 17:45:00,
2013-02-20 10:50:00,32.4,23.8,29.67,SW,225,2.9,7.6,70,0.03,,,0.05,WUHU216HW,2013-02-20 17:50:00,
2013-02-20 10:55:00,32.6,23.5,29.67,WNW,293,3.4,7.2,69,0.03,,,0.05,WUHU216HW,2013-02-20 17:55:00,
2013-02-20 11:00:00,32.9,23.9,29.67,NNW,338,2.7,7.2,69,0.03,,,0.05,WUHU216HW,2013-02-20 18:00:00,
2013-02-20 11:05:00,33.3,24.2,29.67,WSW,248,2.2,6.9,69,0.02,,,0.05,WUHU216HW,2013-02-20 18:05:00,
2013-02-20 11:10:00,33.8,24.3,29.67,ESE,113,6.5,6.9,68,0.02,,,0.05,WUHU216HW,2013-02-20 18:10:00,
2013-02-20 11:15:00,34.6,25.4,29.67,SSW,203,2.9,7.4,69,0.03,,,0.06,WUHU216HW,2013-02-20 18:15:00,
2013-02-20 11:20:00,35.3,25.7,29.67,SE,135,3.8,7.4,68,0.03,,,0.06,WUHU216HW,2013-02-20 18:20:00,
2013-02-20 11:25:00,35.6,25.7,29.67,SSW,203,4.0,6.3,67,0.03,,,0.06,WUHU216HW,2013-02-20 18:25:00,
2013-02-20 11:30:00,35.8,25.9,29.67,SSW,203,5.4,6.3,67,0.02,,,0.06,WUHU216HW,2013-02-20 18:30:00,
2013-02-20 11:35:00,35.6,25.4,29.67,South,180,2.0,6.5,66,0.03,,,0.07,WUHU216HW,2013-02-20 18:35:00,
2013-02-20 11:40:00,35.5,25.6,29.67,WSW,248,3.4,6.5,67,0.03,,,0.07,WUHU216HW,2013-02-20 18:40:00,
2013-02-20 11:45:00,35.5,25.2,29.67,NW,315,1.1,3.4,66,0.02,,,0.07,WUHU216HW,2013-02-20 18:45:00,
2013-02-20 11:50:00,35.3,25.0,29.66,South,180,1.1,3.4,66,0.02,,,0.07,WUHU216HW,2013-02-20 18:50:00,
2013-02-20 11:55:00,35.3,25.0,29.67,West,270,2.7,4.3,66,0.02,,,0.07,WUHU216HW,2013-02-20 18:55:00,
2013-02-20 12:00:00,34.9,24.7,29.67,SW,225,4.0,4.3,66,0.03,,,0.08,WUHU216HW,2013-02-20 19:00:00,
2013-02-20 12:05:00,34.9,25.0,29.66,SSE,158,4.0,5.4,67,0.03,,,0.08,WUHU216HW,2013-02-20 19:05:00,
2013-02-20 12:10:00,35.1,25.2,29.67,SW,225,1.1,5.4,67,0.03,,,0.08,WUHU216HW,2013-02-20 19:10:00,
2013-02-20 12:15:00,35.1,25.6,29.67,SSW,203,1.8,5.4,68,0.02,,,0.08,WUHU216HW,2013-02-20 19:15:00,
2013-02-20 12:20:00,35.3,25.7,29.67,South,180,4.9,5.4,68,0.02,,,0.08,WUHU216HW,2013-02-20 19:20:00,
2013-02-20 12:25:00,35.5,25.9,29.67,SSW,203,3.6,5.1,68,0.02,,,0.08,WUHU216HW,2013-02-20 19:25:00,
2013-02-20 12:30:00,35.3,25.7,29.67,South,180,3.6,5.1,68,0.03,,,0.09,WUHU216HW,2013-02-20 19:30:00,
2013-02-20 12:35:00,34.9,25.7,29.67,South,180,5.4,7.6,69,0.02,,,0.09,WUHU216HW,2013-02-20 19:35:00,
2013-02-20 12:40:00,34.9,25.7,29.67,SSW,203,5.4,7.6,69,0.02,,,0.09,WUHU216HW,2013-02-20 19:40:00,
2013-02-20 12:45:00,34.9,26.1,29.66,South,180,2.0,7.6,70,0.02,,,0.09,WUHU216HW,2013-02-20 19:45:00,
2013-02-20 12:50:00,35.1,25.9,29.66,South,180,4.0,7.4,69,0.02,,,0.09,WUHU216HW,2013-02-20 19:50:00,
2013-02-20 12:55:00,34.9,25.7,29.66,SW,225,4.9,7.4,69,0.02,,,0.09,WUHU216HW,2013-02-20 19:55:00,
2013-02-20 13:00:00,34.7,25.6,29.66,South,180,1.8,6.3,69,0.01,,,0.09,WUHU216HW,2013-02-20 20:00:00,
2013-02-20 13:05:00,34.2,25.4,29.66,South,180,4.9,7.6,70,0.01,,,0.09,WUHU216HW,2013-02-20 20:05:00,
2013-02-20 13:10:00,33.8,25.0,29.66,SW,225,6.7,7.6,70,0.01,,,0.09,WUHU216HW,2013-02-20 20:10:00,
2013-02-20 13:15:00,33.5,24.7,29.66,SSW,203,3.4,7.2,70,0.01,,,0.09,WUHU216HW,2013-02-20 20:15:00,
2013-02-20 13:20:00,33.7,24.8,29.66,West,270,1.6,6.7,70,0.01,,,0.09,WUHU216HW,2013-02-20 20:20:00,
2013-02-20 13:25:00,33.3,24.6,29.66,SW,225,5.4,11.4,70,0.01,,,0.09,WUHU216HW,2013-02-20 20:25:00,
2013-02-20 13:30:00,32.4,23.8,29.66,South,180,2.2,11.9,70,0.00,,,0.09,WUHU216HW,2013-02-20 20:30:00,
2013-02-20 13:35:00,32.6,23.9,29.66,SW,225,4.7,11.9,70,0.01,,,0.10,WUHU216HW,2013-02-20 20:35:00,
2013-02-20 13:40:00,33.1,24.7,29.66,SSW,203,2.7,5.6,71,0.01,,,0.10,WUHU216HW,2013-02-20 20:40:00,
2013-02-20 13:45:00,33.5,25.0,29.66,West,270,4.3,5.6,71,0.01,,,0.10,WUHU216HW,2013-02-20 20:45:00,
2013-02-20 13:50:00,33.5,24.7,29.65,WSW,248,2.5,6.9,70,0.01,,,0.10,WUHU216HW,2013-02-20 20:50:00,
2013-02-20 13:55:00,33.3,24.6,29.65,SW,225,6.7,6.9,70,0.01,,,0.10,WUHU216HW,2013-02-20 20:55:00,
2013-02-20 14:00:00,33.5,24.7,29.65,West,270,5.8,7.2,70,0.01,,,0.10,WUHU216HW,2013-02-20 21:00:00,
2013-02-20 14:05:00,33.1,24.4,29.64,SSW,203,5.6,8.5,70,0.01,,,0.10,WUHU216HW,2013-02-20 21:05:00,
2013-02-20 14:10:00,32.8,24.0,29.65,SSW,203,5.4,9.4,70,0.01,,,0.10,WUHU216HW,2013-02-20 21:10:00,
2013-02-20 14:15:00,32.6,23.9,29.65,SSE,158,3.4,9.4,70,0.01,,,0.10,WUHU216HW,2013-02-20 21:15:00,
2013-02-20 14:20:00,32.8,24.4,29.65,West,270,3.8,9.8,71,0.01,,,0.10,WUHU216HW,2013-02-20 21:20:00,
2013-02-20 14:26:00,32.9,24.2,29.65,SW,225,4.7,9.8,70,0.01,,,0.10,WUHU216HW,2013-02-20 21:26:00,
2013-02-20 14:31:00,33.1,24.4,29.66,West,270,6.3,9.8,70,0.02,,,0.11,WUHU216HW,2013-02-20 21:31:00,
2013-02-20 14:35:00,32.6,23.5,29.66,WSW,248,5.8,10.1,69,0.01,,,0.11,WUHU216HW,2013-02-20 21:35:00,
2013-02-20 14:41:00,32.0,22.7,29.66,WSW,248,4.7,10.1,68,0.01,,,0.11,WUHU216HW,2013-02-20 21:41:00,
2013-02-20 14:46:00,31.5,22.1,29.66,WSW,248,5.8,9.4,68,0.01,,,0.11,WUHU216HW,2013-02-20 21:46:00,
2013-02-20 14:51:00,31.0,22.0,29.66,SW,225,4.9,9.4,69,0.01,,,0.11,WUHU216HW,2013-02-20 21:51:00,
2013-02-20 14:56:00,30.8,22.1,29.67,SSE,158,3.8,8.5,70,0.01,,,0.11,WUHU216HW,2013-02-20 21:56:00,
2013-02-20 15:01:00,30.8,22.1,29.67,West,270,6.5,10.1,70,0.01,,,0.11,WUHU216HW,2013-02-20 22:01:00,
2013-02-20 15:06:00,30.4,21.8,29.67,SW,225,9.8,10.1,70,0.01,,,0.11,WUHU216HW,2013-02-20 22:06:00,
2013-02-20 15:11:00,30.1,21.8,29.67,WSW,248,8.5,9.8,71,0.01,,,0.11,WUHU216HW,2013-02-20 22:11:00,
2013-02-20 15:16:00,29.9,22.0,29.67,South,180,4.7,9.8,72,0.01,,,0.11,WUHU216HW,2013-02-20 22:16:00,
2013-02-20 15:21:00,30.1,22.1,29.67,SSW,203,5.4,8.5,72,0.01,,,0.11,WUHU216HW,2013-02-20 22:21:00,
2013-02-20 15:25:00,29.9,22.0,29.67,WNW,293,5.1,8.5,72,0.01,,,0.11,WUHU216HW,2013-02-20 22:25:00,
2013-02-20 15:30:00,29.9,22.0,29.67,SSW,203,3.8,8.5,72,0.00,,,0.11,WUHU216HW,2013-02-20 22:30:00,
2013-02-20 15:35:00,29.9,22.2,29.67,WSW,248,1.3,6.3,73,0.00,,,0.11,WUHU216HW,2013-02-20 22:35:00,
2013-02-20 15:40:00,29.7,22.1,29.67,SW,225,6.9,8.7,73,0.00,,,0.11,WUHU216HW,2013-02-20 22:40:00,
2013-02-20 15:45:00,29.5,21.9,29.67,WNW,293,3.4,8.7,73,0.00,,,0.11,WUHU216HW,2013-02-20 22:45:00,
2013-02-20 15:50:00,29.5,21.9,29.67,SW,225,5.8,10.1,73,0.00,,,0.11,WUHU216HW,2013-02-20 22:50:00,
2013-02-20 15:55:00,29.5,22.2,29.68,West,270,2.9,10.1,74,0.00,,,0.11,WUHU216HW,2013-02-20 22:55:00,
2013-02-20 16:00:00,29.5,22.2,29.68,West,270,6.3,8.9,74,0.00,,,0.11,WUHU216HW,2013-02-20 23:00:00,
2013-02-20 16:05:00,29.2,22.2,29.68,SSW,203,2.9,8.9,75,0.00,,,0.11,WUHU216HW,2013-02-20 23:05:00,
2013-02-20 16:10:00,28.8,21.9,29.68,WSW,248,6.0,7.6,75,0.00,,,0.11,WUHU216HW,2013-02-20 23:10:00,
2013-02-20 16:15:00,28.8,21.9,29.68,WSW,248,3.4,7.6,75,0.00,,,0.11,WUHU216HW,2013-02-20 23:15:00,
2013-02-20 16:20:00,28.4,21.5,29.68,West,270,7.2,8.9,75,0.00,,,0.11,WUHU216HW,2013-02-20 23:20:00,
2013-02-20 16:25:00,28.3,21.3,29.68,WSW,248,3.4,8.9,75,0.00,,,0.11,WUHU216HW,2013-02-20 23:25:00,
2013-02-20 16:31:00,28.3,21.6,29.69,West,270,6.0,8.3,76,0.00,,,0.11,WUHU216HW,2013-02-20 23:31:00,
2013-02-20 16:36:00,28.1,21.8,29.69,West,270,5.6,8.5,77,0.00,,,0.11,WUHU216HW,2013-02-20 23:36:00,
2013-02-20 16:41:00,27.7,21.1,29.69,WSW,248,6.9,10.1,76,0.00,,,0.11,WUHU216HW,2013-02-20 23:41:00,
2013-02-20 16:46:00,27.7,21.4,29.69,WSW,248,5.8,10.1,77,0.00,,,0.11,WUHU216HW,2013-02-20 23:46:00,
2013-02-20 16:51:00,27.7,21.4,29.68,WSW,248,2.2,8.1,77,0.00,,,0.11,WUHU216HW,2013-02-20 23:51:00,
2013-02-20 16:56:00,27.5,21.3,29.68,WSW,248,4.7,9.8,77,0.00,,,0.11,WUHU216HW,2013-02-20 23:56:00,
2013-02-20 17:01:00,27.4,21.1,29.69,West,270,3.6,9.8,77,0.00,,,0.11,WUHU216HW,2013-02-21 00:01:00,
2013-02-20 17:06:00,27.4,21.1,29.69,SW,225,4.0,6.3,77,0.00,,,0.11,WUHU216HW,2013-02-21 00:06:00,
2013-02-20 17:11:00,27.2,21.2,29.69,WNW,293,11.2,11.2,78,0.00,,,0.11,WUHU216HW,2013-02-21 00:11:00,
2013-02-20 17:16:00,26.8,20.5,29.69,WSW,248,6.7,11.2,77,0.00,,,0.11,WUHU216HW,2013-02-21 00:16:00,
2013-02-20 17:21:00,26.6,20.6,29.69,West,270,4.7,11.2,78,0.00,,,0.11,WUHU216HW,2013-02-21 00:21:00,
2013-02-20 17:26:00,26.5,20.2,29.69,West,270,7.4,9.8,77,0.00,,,0.11,WUHU216HW,2013-02-21 00:26:00,
2013-02-20 17:31:00,26.3,20.0,29.69,SW,225,6.9,9.8,77,0.00,,,0.11,WUHU216HW,2013-02-21 00:31:00,
2013-02-20 17:36:00,25.9,19.6,29.70,NW,315,5.8,8.9,77,0.00,,,0.11,WUHU216HW,2013-02-21 00:36:00,
2013-02-20 17:41:00,25.7,19.5,29.70,WNW,293,6.3,8.5,77,0.00,,,0.11,WUHU216HW,2013-02-21 00:41:00,
2013-02-20 17:46:00,25.6,19.4,29.70,WSW,248,8.7,9.8,77,0.00,,,0.11,WUHU216HW,2013-02-21 00:46:00,
2013-02-20 17:51:00,25.4,19.4,29.70,WSW,248,6.3,11.9,78,0.00,,,0.11,WUHU216HW,2013-02-21 00:51:00,
2013-02-20 17:56:00,25.2,19.3,29.71,WNW,293,6.3,11.9,78,0.00,,,0.11,WUHU216HW,2013-02-21 00:56:00,
2013-02-20 18:01:00,25.0,19.2,29.71,WSW,248,8.7,11.9,78,0.00,,,0.11,WUHU216HW,2013-02-21 01:01:00,
2013-02-20 18:06:00,24.8,19.0,29.71,WNW,293,8.1,11.9,78,0.00,,,0.11,WUHU216HW,2013-02-21 01:06:00,
2013-02-20 18:11:00,24.8,18.6,29.71,WNW,293,11.6,11.6,77,0.00,,,0.11,WUHU216HW,2013-02-21 01:11:00,
2013-02-20 18:16:00,24.8,18.6,29.71,WSW,248,6.9,11.6,77,0.00,,,0.11,WUHU216HW,2013-02-21 01:16:00,
2013-02-20 18:21:00,24.8,18.6,29.71,WNW,293,4.7,11.6,77,0.00,,,0.11,WUHU216HW,2013-02-21 01:21:00,
2013-02-20 18:26:00,24.7,18.5,29.72,WSW,248,9.8,9.8,77,0.00,,,0.11,WUHU216HW,2013-02-21 01:26:00,
2013-02-20 18:31:00,24.7,18.8,29.72,West,270,6.3,11.9,78,0.00,,,0.11,WUHU216HW,2013-02-21 01:31:00,
2013-02-20 18:36:00,24.5,18.3,29.72,WNW,293,9.8,11.9,77,0.00,,,0.11,WUHU216HW,2013-02-21 01:36:00,
2013-02-20 18:41:00,24.3,18.7,29.72,NW,315,7.8,11.4,79,0.00,,,0.11,WUHU216HW,2013-02-21 01:41:00,
2013-02-20 18:46:00,24.1,18.5,29.72,West,270,6.0,11.4,79,0.00,,,0.11,WUHU216HW,2013-02-21 01:46:00,
2013-02-20 18:51:00,23.8,17.9,29.72,WSW,248,3.8,12.1,78,0.00,,,0.11,WUHU216HW,2013-02-21 01:51:00,
2013-02-20 18:56:00,23.6,17.5,29.73,SW,225,6.7,12.1,77,0.00,,,0.11,WUHU216HW,2013-02-21 01:56:00,
2013-02-20 19:01:00,23.4,17.6,29.73,WNW,293,4.3,10.5,78,0.00,,,0.11,WUHU216HW,2013-02-21 02:01:00,
2013-02-20 19:06:00,23.4,17.6,29.73,West,270,5.1,10.5,78,0.00,,,0.11,WUHU216HW,2013-02-21 02:06:00,
2013-02-20 19:11:00,23.4,17.6,29.74,WSW,248,3.1,11.4,78,0.00,,,0.11,WUHU216HW,2013-02-21 02:11:00,
2013-02-20 19:16:00,23.2,17.4,29.74,WSW,248,5.4,11.4,78,0.00,,,0.11,WUHU216HW,2013-02-21 02:16:00,
2013-02-20 19:21:00,23.0,17.2,29.74,West,270,4.7,10.5,78,0.00,,,0.11,WUHU216HW,2013-02-21 02:21:00,
2013-02-20 19:26:00,22.9,17.0,29.74,WSW,248,11.6,11.6,78,0.00,,,0.11,WUHU216HW,2013-02-21 02:26:00,
2013-02-20 19:31:00,22.9,17.0,29.74,WSW,248,5.8,11.6,78,0.00,,,0.11,WUHU216HW,2013-02-21 02:31:00,
2013-02-20 19:36:00,22.7,16.8,29.74,SW,225,4.0,11.6,78,0.00,,,0.11,WUHU216HW,2013-02-21 02:36:00,
2013-02-20 19:41:00,22.7,16.6,29.74,WSW,248,4.9,9.8,77,0.00,,,0.11,WUHU216HW,2013-02-21 02:41:00,
2013-02-20 19:46:00,22.7,16.6,29.74,West,270,7.2,12.1,77,0.00,,,0.11,WUHU216HW,2013-02-21 02:46:00,
2013-02-20 19:51:00,22.7,16.6,29.74,WSW,248,6.0,12.1,77,0.00,,,0.11,WUHU216HW,2013-02-21 02:51:00,
2013-02-20 19:56:00,22.7,16.6,29.75,West,270,8.5,11.2,77,0.00,,,0.11,WUHU216HW,2013-02-21 02:56:00,
2013-02-20 20:01:00,22.5,16.4,29.75,WSW,248,7.2,11.2,77,0.00,,,0.11,WUHU216HW,2013-02-21 03:01:00,
2013-02-20 20:06:00,22.3,16.2,29.75,West,270,6.3,10.7,77,0.00,,,0.11,WUHU216HW,2013-02-21 03:06:00,
2013-02-20 20:11:00,22.3,16.2,29.75,West,270,6.0,11.0,77,0.00,,,0.11,WUHU216HW,2013-02-21 03:11:00,
2013-02-20 20:16:00,22.1,16.0,29.75,West,270,2.7,11.0,77,0.00,,,0.11,WUHU216HW,2013-02-21 03:16:00,
2013-02-20 20:21:00,22.1,16.0,29.74,SW,225,4.3,11.0,77,0.00,,,0.11,WUHU216HW,2013-02-21 03:21:00,
2013-02-20 20:26:00,22.0,15.9,29.75,West,270,8.7,11.4,77,0.00,,,0.11,WUHU216HW,2013-02-21 03:26:00,
2013-02-20 20:31:00,22.0,15.9,29.75,WSW,248,9.8,11.6,77,0.00,,,0.11,WUHU216HW,2013-02-21 03:31:00,
2013-02-20 20:36:00,22.0,15.9,29.76,WSW,248,9.8,11.6,77,0.00,,,0.11,WUHU216HW,2013-02-21 03:36:00,
2013-02-20 20:41:00,21.6,15.5,29.76,West,270,6.9,10.3,77,0.00,,,0.11,WUHU216HW,2013-02-21 03:41:00,
2013-02-20 20:46:00,21.6,15.8,29.76,WNW,293,7.2,12.1,78,0.00,,,0.11,WUHU216HW,2013-02-21 03:46:00,
2013-02-20 20:51:00,21.6,15.8,29.76,West,270,9.4,14.3,78,0.00,,,0.11,WUHU216HW,2013-02-21 03:51:00,
2013-02-20 20:56:00,21.6,15.8,29.76,WSW,248,7.6,14.3,78,0.00,,,0.11,WUHU216HW,2013-02-21 03:56:00,
2013-02-20 21:01:00,21.4,15.6,29.76,SW,225,8.1,9.8,78,0.00,,,0.11,WUHU216HW,2013-02-21 04:01:00,
2013-02-20 21:06:00,21.2,15.4,29.76,SSW,203,3.1,9.8,78,0.00,,,0.11,WUHU216HW,2013-02-21 04:06:00,
2013-02-20 21:11:00,21.2,15.4,29.76,SSW,203,6.9,9.8,78,0.00,,,0.11,WUHU216HW,2013-02-21 04:11:00,
2013-02-20 21:16:00,21.2,15.4,29.77,SW,225,6.7,8.3,78,0.00,,,0.11,WUHU216HW,2013-02-21 04:16:00,
2013-02-20 21:21:00,21.1,15.2,29.77,ENE,68,5.4,11.9,78,0.00,,,0.11,WUHU216HW,2013-02-21 04:21:00,
2013-02-20 21:26:00,21.1,15.2,29.77,West,270,8.5,11.9,78,0.00,,,0.11,WUHU216HW,2013-02-21 04:26:00,
2013-02-20 21:31:00,21.1,15.6,29.77,West,270,6.7,12.1,79,0.00,,,0.11,WUHU216HW,2013-02-21 04:31:00,
2013-02-20 21:36:00,21.1,15.8,29.77,SSW,203,5.6,13.0,80,0.00,,,0.11,WUHU216HW,2013-02-21 04:36:00,
2013-02-20 21:41:00,21.1,15.6,29.77,WSW,248,4.9,13.0,79,0.00,,,0.11,WUHU216HW,2013-02-21 04:41:00,
2013-02-20 21:46:00,20.9,15.4,29.78,SW,225,5.4,9.6,79,0.00,,,0.11,WUHU216HW,2013-02-21 04:46:00,
2013-02-20 21:51:00,20.9,15.4,29.77,SSW,203,6.7,9.2,79,0.00,,,0.11,WUHU216HW,2013-02-21 04:51:00,
2013-02-20 21:56:00,20.9,15.7,29.77,SW,225,3.8,9.2,80,0.00,,,0.11,WUHU216HW,2013-02-21 04:56:00,
2013-02-20 22:00:00,20.9,15.4,29.78,WSW,248,4.5,8.5,79,0.00,,,0.11,WUHU216HW,2013-02-21 05:00:00,
2013-02-20 22:05:00,20.7,15.2,29.78,WSW,248,5.8,9.6,79,0.00,,,0.11,WUHU216HW,2013-02-21 05:05:00,
2013-02-20 22:10:00,20.7,15.5,29.78,SSW,203,4.7,10.7,80,0.00,,,0.11,WUHU216HW,2013-02-21 05:10:00,
2013-02-20 22:15:00,20.7,15.5,29.78,SSW,203,6.3,10.7,80,0.00,,,0.11,WUHU216HW,2013-02-21 05:15:00,
2013-02-20 22:20:00,20.9,15.7,29.78,SSW,203,3.1,9.2,80,0.00,,,0.11,WUHU216HW,2013-02-21 05:20:00,
2013-02-20 22:25:00,20.9,15.7,29.79,WSW,248,6.9,10.3,80,0.00,,,0.11,WUHU216HW,2013-02-21 05:25:00,
2013-02-20 22:30:00,21.1,16.1,29.79,WSW,248,4.0,11.6,81,0.00,,,0.11,WUHU216HW,2013-02-21 05:30:00,
2013-02-20 22:35:00,21.1,16.1,29.79,SSE,158,5.6,11.6,81,0.00,,,0.11,WUHU216HW,2013-02-21 05:35:00,
2013-02-20 22:40:00,21.2,16.3,29.79,SSW,203,8.3,11.2,81,0.00,,,0.11,WUHU216HW,2013-02-21 05:40:00,
2013-02-20 22:45:00,21.2,16.3,29.79,WSW,248,7.4,12.1,81,0.00,,,0.11,WUHU216HW,2013-02-21 05:45:00,
2013-02-20 22:50:00,21.4,16.5,29.80,SSE,158,8.3,12.8,81,0.00,,,0.11,WUHU216HW,2013-02-21 05:50:00,
2013-02-20 22:56:00,21.6,16.7,29.79,WSW,248,6.0,12.8,81,0.00,,,0.11,WUHU216HW,2013-02-21 05:56:00,
2013-02-20 23:01:00,21.6,16.7,29.79,West,270,5.1,11.4,81,0.00,,,0.11,WUHU216HW,2013-02-21 06:01:00,
2013-02-20 23:06:00,21.8,16.8,29.80,SW,225,11.9,12.5,81,0.00,,,0.11,WUHU216HW,2013-02-21 06:06:00,
2013-02-20 23:11:00,22.0,17.3,29.80,SW,225,4.7,12.5,82,0.00,,,0.11,WUHU216HW,2013-02-21 06:11:00,
2013-02-20 23:16:00,22.0,17.0,29.80,SW,225,8.3,11.9,81,0.00,,,0.11,WUHU216HW,2013-02-21 06:16:00,
2013-02-20 23:21:00,22.3,17.6,29.80,SW,225,3.8,12.8,82,0.00,,,0.11,WUHU216HW,2013-02-21 06:21:00,
2013-02-20 23:26:00,22.3,17.6,29.80,West,270,8.5,12.8,82,0.00,,,0.11,WUHU216HW,2013-02-21 06:26:00,
2013-02-20 23:31:00,22.7,18.0,29.80,SSW,203,7.6,11.9,82,0.00,,,0.11,WUHU216HW,2013-02-21 06:31:00,
2013-02-20 23:36:00,22.7,18.0,29.80,SSW,203,2.5,8.9,82,0.00,,,0.11,WUHU216HW,2013-02-21 06:36:00,
2013-02-20 23:41:00,22.7,18.0,29.80,SSW,203,5.6,7.6,82,0.00,,,0.11,WUHU216HW,2013-02-21 06:41:00,
2013-02-20 23:46:00,22.9,18.2,29.80,WSW,248,5.4,11.9,82,0.00,,,0.11,WUHU216HW,2013-02-21 06:46:00,
2013-02-20 23:51:00,22.9,18.2,29.80,SSW,203,6.9,12.5,82,0.00,,,0.11,WUHU216HW,2013-02-21 06:51:00,
2013-02-20 23:56:00,22.9,18.2,29.80,West,270,7.2,12.5,82,0.00,,,0.11,WUHU216HW,2013-02-21 06:56:00,